Location: La Trinit�
(48.1620°N, 3.4512°W)
Time: 14:25:39
(UTC+00:00)

Resurs 01 Rocket - Pass Details

Date: 08 May 2021
Orbit: 634 x 644 km, 97.9° (Epoch: 23 June)

Event Time Altitude Azimuth Distance (km) Brightness Sun altitude
Exits shadow 22:07:15 - 220° (SW) 2,584 4.6 -19.0°
Reaches altitude 10° 22:09:18 10° 238° (WSW) 2,040 4.2 -19.1°
Maximum altitude 22:11:44 14° 271° (W) 1,766 4.3 -19.3°
Drops below altitude 10° 22:14:10 10° 305° (NW) 2,048 5.2 -19.5°
Sets 22:17:22 0° 330° (NNW) 2,962 6.7 -19.8°
